Time,TemperatureF,DewpointF,PressureIn,WindDirection,WindDirectionDegrees,WindSpeedMPH,WindSpeedGustMPH,Humidity,HourlyPrecipIn,Conditions,Clouds,dailyrainin,SoftwareType,DateUTC
2013-08-01 00:03:00,68.0,63.0,29.01,West,270,0.0,0.0,85,0.00,,,0.00,,2013-08-01 04:03:00,
2013-08-01 00:33:00,67.0,62.0,29.01,West,270,0.0,0.0,85,0.00,,,0.00,,2013-08-01 04:33:00,
2013-08-01 00:43:00,67.0,63.0,28.98,West,270,0.0,0.0,86,0.00,,,0.00,,2013-08-01 04:43:00,
2013-08-01 00:52:00,67.0,63.0,28.98,West,270,0.0,0.0,86,0.00,,,0.00,,2013-08-01 04:52:00,
2013-08-01 01:23:00,67.0,63.0,28.98,SW,225,0.0,0.0,87,0.00,,,0.00,,2013-08-01 05:23:00,
2013-08-01 01:33:00,67.0,63.0,28.98,West,270,0.0,0.0,87,0.00,,,0.00,,2013-08-01 05:33:00,
2013-08-01 01:43:00,67.0,63.0,28.98,West,270,0.0,0.0,86,0.00,,,0.00,,2013-08-01 05:43:00,
2013-08-01 01:53:00,67.0,63.0,28.98,SSW,202,0.0,0.0,86,0.00,,,0.00,,2013-08-01 05:53:00,
2013-08-01 02:02:00,67.0,63.0,28.98,SSW,202,0.0,0.0,86,0.00,,,0.00,,2013-08-01 06:02:00,
2013-08-01 02:12:00,67.0,62.0,28.98,SSE,157,0.0,0.0,85,0.00,,,0.00,,2013-08-01 06:12:00,
2013-08-01 02:23:00,67.0,62.0,28.95,WSW,247,0.0,0.0,85,0.00,,,0.00,,2013-08-01 06:23:00,
2013-08-01 02:33:00,67.0,62.0,28.95,WSW,239,0.0,5.0,85,0.00,,,0.00,,2013-08-01 06:33:00,
2013-08-01 02:43:00,67.0,63.0,28.95,SW,230,2.0,4.0,86,0.00,,,0.00,,2013-08-01 06:43:00,
2013-08-01 02:52:00,67.0,63.0,28.95,West,275,1.0,4.0,86,0.00,,,0.00,,2013-08-01 06:52:00,
2013-08-01 03:02:00,67.0,63.0,28.95,NW,306,2.0,4.0,86,0.00,,,0.00,,2013-08-01 07:02:00,
2013-08-01 03:12:00,67.0,63.0,28.95,NW,306,2.0,4.0,86,0.00,,,0.00,,2013-08-01 07:12:00,
2013-08-01 03:32:00,67.0,63.0,28.95,SW,225,0.0,3.0,87,0.00,,,0.00,,2013-08-01 07:32:00,
2013-08-01 03:43:00,67.0,63.0,28.95,South,169,2.0,4.0,88,0.00,,,0.00,,2013-08-01 07:43:00,
2013-08-01 03:53:00,67.0,64.0,28.95,SSW,202,0.0,5.0,89,0.00,,,0.04,,2013-08-01 07:53:00,
2013-08-01 04:07:00,67.0,64.0,28.95,SW,215,1.0,4.0,90,0.00,,,0.04,,2013-08-01 08:07:00,
2013-08-01 04:27:00,66.0,63.0,28.92,WSW,247,0.0,3.0,91,0.04,,,0.04,,2013-08-01 08:27:00,
2013-08-01 04:39:00,66.0,63.0,28.92,WSW,247,0.0,3.0,91,0.04,,,0.04,,2013-08-01 08:39:00,
2013-08-01 04:46:00,66.0,64.0,28.92,WNW,292,0.0,4.0,92,0.04,,,0.04,,2013-08-01 08:46:00,
2013-08-01 05:18:00,67.0,65.0,28.92,WSW,247,0.0,3.0,93,0.00,,,0.08,,2013-08-01 09:18:00,
2013-08-01 05:53:00,67.0,65.0,28.92,NNE,22,0.0,2.0,94,0.00,,,0.08,,2013-08-01 09:53:00,
2013-08-01 06:00:00,67.0,65.0,28.92,NNE,22,0.0,2.0,94,0.00,,,0.08,,2013-08-01 10:00:00,
2013-08-01 06:15:00,67.0,66.0,28.92,West,270,0.0,3.0,95,0.00,,,0.08,,2013-08-01 10:15:00,
2013-08-01 06:22:00,67.0,66.0,28.92,WSW,251,1.0,3.0,95,0.00,,,0.08,,2013-08-01 10:22:00,
2013-08-01 06:43:00,67.0,66.0,28.92,West,270,1.0,4.0,96,0.00,,,0.08,,2013-08-01 10:43:00,
2013-08-01 06:55:00,67.0,66.0,28.95,SSE,157,2.0,4.0,97,0.00,,,0.08,,2013-08-01 10:55:00,
2013-08-01 07:44:00,67.0,66.0,28.95,NW,315,1.0,4.0,98,0.00,,,0.08,,2013-08-01 11:44:00,
2013-08-01 08:14:00,68.0,67.0,28.95,WNW,292,2.0,5.0,97,0.00,,,0.08,,2013-08-01 12:14:00,
2013-08-01 08:48:00,69.0,66.0,28.98,WNW,303,3.0,5.0,89,0.00,,,0.08,,2013-08-01 12:48:00,
2013-08-01 11:15:00,77.0,60.0,28.98,NW,307,2.0,7.0,55,0.00,,,0.08,,2013-08-01 15:15:00,
2013-08-01 23:38:00,66.0,55.0,28.98,WSW,247,0.0,0.0,68,0.00,,,0.08,,2013-08-02 03:38:00,
2013-08-01 23:48:00,66.0,56.0,28.98,WSW,247,0.0,0.0,69,0.00,,,0.08,,2013-08-02 03:48:00,
2013-08-01 23:56:00,66.0,56.0,28.98,WSW,247,0.0,0.0,69,0.00,,,0.08,,2013-08-02 03:56:00,